GFSMW_850_spd_018.txt.gz
Wind_Speed
7 4 7 6 3 3 4 5 6 14 12 11 9 6 7 9 10 11 16 18 21 26 30 31 29 28 24 26 28 25 26 27 26 25 27 27 25 25 24 22 21 21 19
11 11 10 8 7 4 5 6 8 9 11 10 12 14 15 12 15 14 16 21 29 30 28 28 27 25 23 24 25 26 26 28 26 29 28 31 31 30 26 25 25 24 22
10 10 9 6 4 2 3 4 7 10 11 10 7 7 9 12 11 22 25 28 30 29 28 28 29 30 28 25 24 24 25 29 27 28 28 24 32 30 28 23 23 24 23
8 7 7 3 2 3 3 3 3 4 7 9 12 16 13 13 15 16 18 25 26 30 30 30 30 30 27 24 23 22 23 24 30 26 30 33 36 35 30 24 22 24 24
7 7 7 8 7 6 7 8 9 9 13 17 19 18 21 23 27 30 41 25 22 24 26 31 32 31 29 26 30 25 16 17 20 21 22 26 24 26 29 35 23 23 22
7 6 7 7 8 8 8 9 10 10 16 19 21 22 21 24 21 19 22 24 26 26 25 29 29 27 22 14 10 16 16 17 18 18 19 18 13 14 17 17 27 24 19
9 8 6 5 6 8 11 14 16 15 17 21 24 30 18 17 19 22 24 29 30 28 25 27 17 11 10 12 13 13 12 9 10 9 10 9 10 9 9 11 14 17 20
7 7 6 8 9 10 11 13 14 15 14 15 20 21 19 20 22 25 31 31 29 27 23 13 8 5 2 4 12 14 15 13 18 15 15 13 15 16 14 11 9 13 16
3 6 10 11 12 12 12 14 17 20 19 18 18 20 23 25 27 34 34 29 27 19 12 7 5 6 7 8 9 9 8 8 10 9 9 8 7 8 10 11 12 14 20
4 9 13 15 15 15 13 14 19 19 17 16 16 18 21 24 29 31 29 25 19 11 7 7 7 6 5 6 15 9 10 10 10 9 11 12 13 14 15 16 16 17 20
10 14 16 15 14 12 14 17 18 16 15 15 17 20 22 24 25 24 18 13 8 7 8 7 6 9 15 24 13 12 11 11 11 13 15 16 18 19 20 20 21 22 23
14 15 16 14 12 14 18 18 15 17 17 17 19 21 26 20 17 17 12 10 8 8 8 10 12 19 24 15 12 12 11 13 14 15 18 20 22 21 20 20 21 23 24
19 18 17 15 14 18 17 15 15 16 20 22 21 18 16 16 17 14 12 10 10 11 12 12 18 19 16 15 15 16 16 17 18 18 19 21 19 20 20 21 23 23 24
18 16 15 15 18 16 14 14 17 20 22 20 19 18 15 17 18 12 12 13 14 16 18 18 15 18 15 14 13 15 17 18 19 19 19 20 20 21 21 23 24 24 26
16 15 16 16 12 12 15 17 21 21 17 17 17 13 15 14 13 13 14 15 15 16 16 14 13 14 15 14 21 20 18 19 21 21 21 21 22 27 29 26 24 24 26
11 15 14 13 14 16 17 20 21 17 15 14 14 9 11 12 14 14 15 16 16 15 15 15 15 15 14 20 23 25 24 22 22 22 22 21 23 23 24 28 27 24 24
14 14 12 13 17 16 18 21 20 16 15 15 11 11 13 13 13 16 17 17 16 16 16 16 15 14 15 22 25 26 25 22 21 22 22 23 22 23 22 22 23 25 24
14 15 15 18 17 17 20 21 20 18 16 15 13 12 12 13 15 16 16 16 16 16 16 16 15 17 17 25 25 26 24 20 21 22 22 23 23 21 20 21 21 21 22
16 18 19 21 18 19 21 22 21 20 18 17 14 12 13 13 14 15 15 16 16 17 16 16 17 19 19 22 25 25 21 21 23 21 20 20 22 21 22 22 22 22 24
17 20 21 21 18 22 21 21 22 20 17 14 14 13 12 13 14 14 15 15 17 17 17 17 18 19 19 20 22 20 20 21 21 22 20 21 21 21 20 20 23 25 25
18 20 21 21 23 23 22 22 20 18 17 12 12 12 12 12 13 14 16 18 19 19 19 21 21 18 19 21 23 22 19 20 21 21 21 18 19 21 22 25 25 21 22
21 21 24 25 25 24 24 24 21 20 18 18 16 13 12 12 14 15 18 20 20 19 20 20 19 17 21 21 22 23 20 22 22 21 18 19 21 23 23 20 16 17 16
22 24 26 27 25 24 23 24 24 21 19 19 16 13 12 12 13 17 19 18 18 17 18 16 18 19 19 19 22 22 22 22 21 17 19 19 19 17 12 13 12 10 10
24 24 25 26 26 24 22 20 21 20 18 17 16 13 13 13 15 16 15 17 16 16 15 17 18 20 20 18 20 21 22 20 17 18 12 16 13 10 12 11 8 8 9
23 22 23 26 27 24 22 20 18 15 16 17 14 12 12 12 14 14 14 14 13 16 15 15 17 18 18 19 21 22 22 18 18 12 10 10 10 10 11 12 10 9 8
23 23 25 27 27 24 21 16 15 21 18 15 11 11 12 11 11 11 13 16 19 18 16 17 18 15 16 18 18 19 18 15 12 7 8 10 11 11 12 13 13 12 11

GFSMW_850_spd_021.txt.gz
Wind_Speed
10 6 3 4 5 5 4 4 4 7 2 4 5 7 7 9 11 11 11 11 12 15 17 18 20 22 20 21 24 25 26 28 27 30 31 33 32 33 32 29 27 26 24
11 10 12 12 11 9 7 5 3 1 1 3 4 7 9 10 11 10 11 13 15 26 28 26 26 23 23 24 24 25 27 28 27 29 30 33 34 31 35 37 34 33 29
11 10 11 10 9 9 8 5 4 3 3 3 5 6 9 11 12 13 18 20 22 21 27 26 26 23 23 23 23 24 25 29 29 27 30 30 31 30 30 28 34 31 30
8 9 8 9 8 8 7 6 5 4 5 7 5 10 9 13 17 18 20 22 25 22 20 21 21 22 22 22 22 20 22 21 28 27 27 30 28 22 30 36 32 28 32
7 8 7 7 7 7 6 5 5 7 8 10 13 12 13 16 19 18 19 19 20 21 22 22 22 23 20 18 17 17 14 14 17 15 23 29 25 21 15 26 28 33 24
6 5 5 4 5 6 6 7 8 9 11 11 12 13 15 15 17 18 20 19 21 22 22 22 21 19 16 14 15 17 15 16 17 18 20 21 21 21 19 17 24 20 23
6 5 4 4 4 6 8 9 11 13 14 14 14 15 16 17 18 20 21 23 24 25 24 21 18 15 16 16 10 7 15 21 19 17 14 11 14 14 13 12 11 14 21
3 3 4 7 9 11 12 13 14 16 17 18 18 17 18 19 20 20 23 25 25 24 21 18 15 16 15 8 10 16 19 17 12 9 7 7 7 8 8 8 10 13 15
5 6 8 10 12 13 14 14 15 19 21 21 19 18 19 19 21 22 24 25 24 23 18 15 16 10 9 13 14 13 17 16 12 11 10 9 10 10 10 10 13 11 17
7 9 13 14 14 16 15 16 19 20 19 18 18 17 19 21 22 22 23 23 21 19 18 17 15 11 11 16 21 18 13 15 15 14 14 14 15 15 15 15 15 15 15
10 13 15 14 15 15 15 19 20 19 18 17 17 19 21 21 19 19 21 19 17 16 15 13 11 14 18 21 23 16 18 15 16 16 17 18 18 19 20 21 22 23 24
13 15 16 14 18 15 20 20 17 14 15 18 20 21 20 19 19 20 17 16 16 15 15 17 19 16 20 16 15 15 14 14 16 17 19 21 22 23 23 22 22 23 23
17 18 17 21 19 18 19 15 15 16 19 21 21 20 19 17 18 19 19 17 17 17 20 20 21 18 16 19 18 17 17 18 20 21 22 23 22 23 22 22 23 23 24
18 16 20 23 20 16 13 15 17 19 20 19 19 19 18 16 16 13 13 14 16 18 20 20 20 19 19 18 18 15 17 19 20 21 22 23 23 23 23 23 22 23 24
22 20 22 20 17 14 15 17 18 20 20 18 18 18 15 15 13 14 15 17 18 19 19 19 19 19 19 20 21 23 23 21 23 23 24 24 24 27 30 28 26 23 24
19 18 17 17 17 17 19 19 19 20 18 17 19 18 15 15 15 16 16 18 19 19 18 18 19 19 19 22 26 30 30 26 23 24 24 24 25 25 24 26 29 28 25
15 15 16 17 18 20 20 20 21 21 21 20 19 17 15 16 16 16 17 17 18 18 19 19 19 19 20 24 28 33 33 26 23 23 24 25 25 25 24 23 24 28 25
17 16 18 20 21 23 22 23 23 24 25 25 20 17 15 16 16 16 17 18 18 19 19 19 19 20 20 25 30 34 32 23 23 23 24 25 26 25 26 25 24 24 22
15 19 21 22 24 25 25 25 27 27 27 25 22 18 18 16 17 17 17 18 18 20 20 20 19 21 22 24 29 30 25 22 24 23 22 23 24 24 24 24 26 25 23
19 22 22 24 26 27 27 28 30 30 28 25 19 18 19 17 15 16 17 17 19 21 22 22 24 23 25 22 26 26 25 25 24 23 22 22 23 25 22 23 23 24 24
22 23 25 25 28 28 29 30 31 31 28 24 20 20 17 15 14 14 16 19 20 22 20 26 26 22 21 23 24 23 22 25 26 25 24 22 23 14 16 22 28 26 25
25 26 26 28 29 29 29 31 32 30 27 22 18 16 21 9 13 15 17 19 20 20 19 24 24 20 22 21 22 23 26 24 26 26 23 22 25 27 25 21 17 19 19
28 28 28 28 28 28 28 31 30 28 25 25 23 20 13 12 13 13 17 18 19 17 21 19 20 21 20 20 20 25 24 24 24 21 23 20 17 21 13 13 15 11 8
29 28 27 28 29 29 30 29 27 25 21 18 17 15 12 12 13 14 16 17 16 17 16 19 19 20 21 21 20 24 24 24 21 21 13 15 15 11 12 12 10 9 9
27 27 27 28 29 31 30 28 24 17 17 17 15 14 12 11 12 12 14 14 14 20 21 18 17 19 20 20 23 23 24 22 21 14 13 13 13 12 11 11 11 10 10
29 29 30 30 31 30 28 24 17 14 16 15 13 12 11 12 14 11 11 14 18 19 21 22 22 25 19 20 20 20 19 17 15 10 12 12 13 14 14 14 13 12 13

GFSMW_850_spd_024.txt.gz
Wind_Speed
17 16 16 12 8 9 9 9 8 8 2 3 5 7 6 7 6 9 12 15 15 22 22 27 23 25 29 26 27 29 31 31 29 30 30 30 30 31 33 34 36 34 33
18 17 15 15 13 11 10 7 4 2 5 1 4 7 8 10 10 10 11 13 19 22 28 28 30 21 24 28 29 24 25 26 25 26 29 31 31 28 29 34 37 38 39
15 14 14 13 11 12 11 9 6 5 6 3 2 6 8 7 10 13 19 29 25 25 27 20 21 24 26 32 30 26 26 29 27 21 22 25 25 25 28 29 23 22 28
12 12 10 10 10 10 10 7 5 4 7 9 7 8 7 10 13 17 18 22 25 22 19 22 24 27 28 31 27 20 23 25 27 30 28 25 21 12 25 27 30 30 27
10 9 9 9 7 6 7 5 4 7 9 10 10 13 14 18 20 16 18 19 18 19 23 25 26 28 31 31 22 22 22 21 22 25 29 28 29 25 19 26 25 26 26
7 7 7 6 7 7 6 6 7 8 10 13 15 15 17 15 17 18 19 17 22 26 27 28 28 28 21 20 21 22 26 24 24 25 22 23 23 21 20 25 33 30 31
6 6 5 5 5 5 7 7 9 11 13 13 14 14 14 15 16 18 20 24 30 27 28 25 22 19 21 24 26 27 19 20 24 19 18 17 18 16 14 13 17 22 26
3 3 3 6 6 7 8 10 11 12 16 16 16 16 18 15 16 23 27 29 21 25 22 17 17 23 24 23 15 8 15 17 20 17 16 15 16 16 13 12 11 18 21
3 5 6 9 10 11 12 12 13 15 16 18 18 17 16 19 24 26 28 21 23 18 20 24 22 21 23 21 17 20 23 24 20 18 19 19 18 16 15 14 15 16 17
6 9 11 13 13 14 13 14 16 15 16 18 16 16 18 18 23 25 18 20 18 20 20 18 18 18 12 15 22 25 27 26 22 20 19 18 20 20 19 17 19 19 22
7 10 13 12 14 17 20 18 19 15 13 14 16 19 21 20 18 14 16 23 25 22 21 22 23 23 24 27 28 19 16 18 19 19 18 20 19 21 22 21 22 21 21
8 12 13 14 17 16 15 16 15 12 14 18 19 20 18 18 17 20 26 25 17 19 18 21 23 25 23 21 19 19 19 20 18 20 22 24 23 24 25 25 24 23 22
12 15 14 14 19 20 21 16 14 16 16 19 20 20 19 21 23 19 19 17 17 19 21 21 22 22 22 20 21 21 20 18 19 22 24 25 25 25 27 26 26 25 24
15 17 16 19 20 19 16 16 18 16 18 20 21 19 20 22 16 15 16 18 18 20 22 23 22 22 22 22 22 19 20 24 31 32 26 26 26 27 27 26 24 26 28
18 15 19 20 17 18 17 19 19 21 19 21 21 20 22 17 15 19 18 19 18 21 21 22 22 22 22 23 22 25 28 31 36 36 31 24 24 26 27 30 30 27 28
15 20 18 18 18 18 20 21 22 21 22 20 22 26 18 16 16 16 18 17 19 19 20 20 21 21 21 24 27 29 31 33 34 37 30 23 26 24 24 23 25 25 26
19 20 18 19 19 21 23 26 23 24 23 29 26 29 26 16 14 15 15 18 18 19 19 21 21 20 20 23 28 34 33 34 34 29 26 27 27 27 27 25 25 24 20
20 18 19 21 21 21 25 26 26 29 28 30 35 27 22 16 13 14 14 16 17 19 21 20 19 23 28 30 31 36 33 32 31 25 27 27 29 29 28 27 28 26 26
17 20 22 24 24 26 25 26 29 33 34 33 22 33 18 18 18 12 15 15 17 19 19 19 23 29 31 30 26 28 30 30 30 30 26 24 26 24 24 25 28 27 25
21 24 26 24 24 22 27 29 29 32 32 32 26 23 20 23 14 15 11 15 16 17 20 24 29 30 30 25 25 28 29 28 27 31 29 26 25 26 26 23 18 22 23
23 26 28 28 27 29 28 27 29 30 32 31 28 25 25 26 26 18 8 13 17 18 23 27 28 29 23 25 24 25 25 23 29 31 28 24 22 22 25 27 28 27 24
26 28 29 29 27 26 28 27 27 29 29 32 36 35 31 28 13 12 10 13 17 18 21 26 29 24 23 22 22 23 21 28 28 27 24 26 26 22 22 20 12 16 18
27 29 27 29 30 28 26 28 28 25 27 28 22 23 22 19 14 13 11 14 16 19 24 25 23 24 24 25 24 27 29 24 25 23 23 14 16 18 13 15 14 12 11
28 25 30 29 27 28 26 24 23 26 26 22 22 21 18 18 11 12 13 14 18 22 23 23 24 25 25 26 26 26 25 23 23 20 14 14 16 13 11 12 12 11 9
25 30 28 28 28 30 27 25 25 27 21 21 20 15 16 13 10 12 12 15 19 19 21 21 22 24 28 27 24 22 23 23 21 13 14 15 15 15 14 15 10 11 12
28 28 28 29 27 27 28 30 27 22 23 23 15 17 17 16 16 17 15 14 18 19 19 19 22 24 25 28 22 20 21 16 18 13 14 15 15 15 16 17 16 14 16

GFSMW_850_spd_027.txt.gz
Wind_Speed
25 21 18 17 12 8 4 5 6 6 5 1 3 4 5 3 3 10 14 13 12 16 22 26 23 24 27 26 27 31 32 29 28 31 33 30 28 30 27 26 28 27 31
20 16 13 10 7 6 3 3 3 2 1 3 4 6 7 6 4 6 7 10 12 13 16 19 20 19 21 24 29 33 33 33 28 30 33 30 32 29 24 24 25 22 21
22 16 15 14 11 9 6 4 4 6 6 2 3 6 9 9 10 12 15 18 20 22 22 20 19 21 25 28 28 31 34 30 26 22 19 18 18 31 31 29 26 31 30
20 16 12 10 8 9 6 8 10 13 14 14 14 15 17 16 17 20 20 22 24 23 24 22 25 31 31 31 33 30 27 26 27 26 22 24 24 18 28 25 24 23 28
14 10 7 7 9 9 10 9 7 9 12 17 19 20 19 18 15 13 18 18 20 22 24 30 33 27 25 26 24 23 25 27 26 27 27 28 23 23 24 33 28 31 29
10 6 5 7 8 8 9 7 3 6 10 9 10 10 10 12 15 23 26 28 28 31 34 29 23 23 22 22 24 27 30 31 28 23 20 20 20 19 18 24 32 30 29
13 12 8 5 4 4 3 3 7 8 10 16 18 13 12 15 16 20 26 26 31 34 27 21 20 21 24 26 27 27 26 16 23 19 21 18 18 21 19 17 20 23 25
8 4 7 5 2 2 6 10 12 11 12 12 14 17 19 17 17 21 24 29 28 21 16 19 26 28 24 23 23 28 19 14 20 22 23 21 20 21 23 24 19 25 26
6 4 7 6 2 4 7 10 12 12 14 15 13 13 14 16 21 25 28 26 22 19 20 25 24 24 25 25 28 18 22 26 26 25 20 22 21 21 23 23 17 16 23
9 7 6 7 8 11 14 17 16 15 13 14 13 14 18 22 24 23 22 19 21 27 26 22 25 21 20 22 23 21 21 17 18 19 19 18 22 22 19 20 20 18 19
7 7 8 9 10 11 10 12 16 15 13 14 16 22 25 21 20 22 21 25 32 19 17 18 21 22 24 21 20 20 19 19 19 18 15 16 18 21 22 23 21 20 19
8 12 12 8 8 16 21 18 13 13 17 18 20 20 23 26 24 28 30 27 24 15 16 18 19 22 22 21 20 20 21 23 22 19 19 23 29 29 25 24 25 25 25
13 8 5 12 22 20 15 15 16 19 19 21 26 27 25 27 26 30 28 23 22 18 16 19 22 23 22 22 21 23 24 20 20 23 28 35 32 30 30 28 28 28 27
13 13 16 23 21 15 17 17 19 20 27 28 24 26 27 26 29 30 28 22 20 18 18 19 23 25 23 23 22 21 23 28 31 32 33 33 32 27 24 25 26 27 29
16 19 23 20 15 16 16 20 23 28 26 19 27 28 32 33 29 26 25 21 17 14 18 18 23 23 22 22 24 28 32 34 35 35 34 33 29 21 19 22 23 22 22
16 19 20 19 19 22 24 24 24 22 21 30 31 31 25 24 36 33 19 17 13 15 18 19 20 21 23 26 28 30 33 36 36 34 34 33 29 24 24 24 22 21 22
17 17 17 20 19 21 18 20 21 24 26 30 28 25 29 32 24 23 19 19 17 15 17 18 17 18 23 26 29 33 33 30 27 30 29 29 27 24 25 26 28 27 25
16 17 20 22 25 17 21 21 22 26 28 27 26 33 30 26 26 18 17 19 12 11 16 15 16 21 24 26 30 29 26 28 30 29 28 28 29 24 24 24 24 24 24
16 18 19 18 19 19 24 23 24 27 24 24 26 30 33 32 29 21 27 16 12 11 13 15 19 25 27 29 26 26 29 29 28 28 27 32 27 24 22 23 23 22 22
16 17 17 21 23 23 25 29 31 26 22 25 30 34 36 39 29 24 21 18 6 14 15 19 24 24 29 23 24 25 26 26 27 29 34 27 23 19 21 22 24 27 26
16 19 25 26 26 29 32 31 24 24 26 30 32 34 35 27 24 18 7 7 10 11 17 20 23 27 23 23 25 27 27 28 30 33 29 24 21 22 19 19 21 20 15
21 25 27 24 28 26 23 22 22 24 26 28 34 33 26 25 21 17 9 6 9 14 18 22 27 25 24 23 25 25 26 26 23 24 23 19 18 17 15 14 14 14 15
22 19 20 26 24 20 26 21 22 27 31 35 32 25 22 17 14 11 8 7 14 19 22 25 25 25 24 26 26 26 23 22 20 20 16 13 15 18 11 10 10 10 9
17 23 26 25 25 25 23 24 30 34 37 30 25 23 17 15 13 9 11 15 19 19 21 22 22 22 24 27 29 27 25 21 19 15 12 16 16 12 12 14 8 10 11
24 25 24 26 27 29 30 31 33 29 30 27 25 19 16 16 13 13 14 17 17 17 19 19 18 21 24 26 23 23 23 20 18 15 14 16 15 14 15 15 13 13 14
25 26 27 28 29 32 33 34 24 26 27 23 22 20 20 11 10 11 13 11 15 14 15 17 19 19 22 26 24 22 19 14 17 16 14 16 16 15 16 15 13 15 17

GFSMW_850_spd_030.txt.gz
Wind_Speed
29 28 29 28 23 19 15 12 10 11 11 12 10 7 8 4 3 5 4 7 9 10 14 18 20 22 24 23 24 28 33 35 36 39 40 37 33 22 21 21 23 25 23
22 18 15 13 14 15 15 15 14 11 9 6 4 2 1 3 3 4 9 11 14 18 22 24 24 22 22 23 27 31 33 33 34 31 30 23 35 23 17 21 26 27 26
22 18 15 12 9 11 10 9 10 10 7 4 2 3 5 8 11 16 21 24 26 28 27 24 24 26 30 32 32 29 26 24 23 25 22 17 13 35 29 23 27 28 27
21 17 14 12 9 11 11 11 9 9 12 14 15 16 19 19 21 23 22 22 24 25 27 29 32 32 29 24 22 18 18 20 22 25 25 25 27 22 25 20 26 29 28
17 17 13 9 8 8 9 10 11 11 12 15 17 16 15 15 15 16 17 20 21 24 30 33 33 24 24 19 19 20 23 26 23 20 22 23 22 20 18 29 26 27 24
15 11 8 6 6 6 6 4 3 7 10 12 15 18 20 16 14 17 22 26 26 30 34 31 27 25 25 25 24 23 22 23 23 17 19 19 21 20 19 25 32 32 27
11 8 5 3 5 3 1 3 5 8 11 16 17 16 15 15 14 16 20 24 28 27 23 28 27 27 26 23 23 23 24 25 16 18 17 20 21 20 23 22 32 30 33
10 9 9 9 8 4 3 6 11 14 18 20 21 21 19 18 18 23 28 28 27 26 24 22 25 22 23 21 20 19 22 22 23 19 17 19 18 18 21 20 23 26 26
8 10 10 9 5 2 5 7 10 13 16 18 17 15 15 20 25 28 28 27 25 22 30 28 18 19 18 20 21 21 19 19 16 13 17 17 16 14 17 23 22 20 18
15 12 8 6 4 5 6 10 14 17 17 16 16 18 23 29 30 31 32 29 29 29 27 22 20 19 19 19 19 21 20 18 16 16 18 19 17 16 18 20 21 23 22
11 11 10 6 3 6 12 17 13 9 12 17 22 25 25 31 32 31 33 31 30 26 25 18 17 18 20 19 17 15 16 18 21 21 19 18 19 22 26 30 30 25 21
13 10 5 4 9 14 15 12 10 13 18 17 24 29 30 29 28 35 34 34 33 28 21 17 20 19 21 22 20 18 18 20 19 17 20 25 29 33 34 32 29 29 28
6 5 8 13 16 12 9 10 14 18 21 27 28 23 23 32 33 31 33 35 26 23 15 20 21 20 20 22 22 21 20 21 25 28 30 32 32 33 31 29 28 27 26
7 10 14 13 8 9 10 15 18 17 19 19 18 24 26 27 28 34 32 26 23 17 14 17 20 19 22 21 20 20 23 26 28 31 34 32 30 29 27 23 23 24 26
10 12 14 10 11 13 15 13 15 19 19 20 20 28 27 30 30 26 26 32 33 20 13 16 17 19 20 20 20 23 27 29 32 31 28 25 26 26 21 21 24 23 23
9 9 9 13 14 17 12 11 16 20 23 24 27 26 26 30 29 30 30 33 24 15 8 16 15 19 17 18 22 26 29 31 29 27 26 26 26 24 23 21 21 24 25
8 11 14 13 11 10 11 17 21 23 24 25 25 25 27 30 34 33 29 31 23 17 9 9 14 17 17 21 24 27 29 27 26 27 27 28 26 25 27 22 21 20 20
9 10 7 10 12 15 19 19 21 21 18 18 23 27 31 33 36 37 23 26 23 21 13 8 13 15 20 23 26 26 25 25 26 27 28 27 29 26 21 19 22 21 19
5 6 10 14 17 20 22 25 24 21 22 26 30 32 31 34 34 29 24 21 17 8 4 12 14 20 23 26 25 26 25 26 28 29 29 27 23 21 17 20 20 20 21
4 10 16 20 24 29 29 30 23 20 24 30 27 28 34 29 25 20 15 8 5 3 9 12 16 21 23 22 24 25 28 29 28 28 25 21 19 17 17 18 19 22 23
11 15 16 19 24 24 21 21 22 27 26 23 28 32 25 22 18 15 13 9 6 8 9 14 19 22 22 22 24 25 26 23 23 22 20 17 15 17 16 16 15 16 13
10 13 17 20 21 18 23 27 27 26 26 31 32 26 23 19 14 13 6 5 3 8 14 17 18 19 19 22 24 26 21 18 17 19 16 15 16 19 13 11 11 11 10
14 17 21 22 19 22 24 25 26 27 32 28 25 23 20 15 12 10 9 6 10 15 16 16 17 17 19 22 25 24 25 19 16 16 13 16 18 12 10 13 10 9 10
19 21 22 22 22 23 26 29 31 32 28 23 24 21 18 14 11 10 10 12 15 14 14 14 15 16 19 21 26 25 26 19 19 18 16 15 14 11 12 12 10 10 10
20 20 21 22 23 24 26 29 32 30 21 23 20 18 17 15 9 7 8 12 13 14 12 13 15 17 18 21 24 22 21 19 18 18 15 14 15 14 14 12 10 11 12
19 20 21 24 24 25 28 28 24 23 25 21 16 15 13 12 7 7 8 11 13 9 10 13 14 16 17 21 21 18 19 18 17 15 13 14 15 16 15 14 11 11 12

GFSMW_850_spd_033.txt.gz
Wind_Speed
26 24 21 19 21 22 22 18 9 0 3 6 6 6 6 3 4 5 7 9 12 15 19 22 26 27 27 29 30 32 33 36 38 39 36 36 16 17 22 17 20 23 23
25 23 22 19 15 9 9 9 8 6 4 3 4 4 4 7 10 13 15 19 23 25 27 28 30 30 32 35 34 32 31 28 24 25 26 18 33 16 29 26 19 23 28
23 19 14 11 12 12 11 11 9 7 5 4 5 6 8 14 19 20 20 20 20 22 25 25 26 28 32 27 22 21 19 21 21 22 22 18 14 35 29 34 18 21 24
19 16 16 17 15 13 10 11 10 8 9 11 11 14 15 17 17 18 18 18 20 22 24 25 28 26 22 22 20 20 19 19 20 22 20 19 21 26 26 20 26 21 22
17 18 17 14 11 9 7 5 3 1 5 9 13 13 14 16 15 13 15 17 23 28 30 30 26 27 27 26 22 18 17 17 18 22 19 17 16 19 20 21 17 29 24
16 16 15 12 11 8 4 1 3 7 9 11 13 16 17 15 13 14 18 23 26 28 27 27 29 31 29 27 22 20 18 18 20 16 15 19 19 23 21 24 31 30 31
15 13 10 8 7 5 4 5 6 8 9 12 15 16 16 15 14 17 21 27 27 27 26 29 28 27 24 22 19 15 16 19 20 21 20 18 18 18 22 22 25 22 26
9 8 4 6 3 5 4 4 7 12 14 14 17 16 15 16 19 25 27 29 29 29 28 26 26 22 20 19 18 17 17 18 19 19 14 15 17 17 16 16 17 25 19
10 8 7 8 6 4 6 8 11 12 15 15 16 17 20 23 24 27 29 28 30 30 29 28 28 24 21 20 18 18 17 15 14 14 15 18 19 18 18 15 16 18 19
16 14 11 7 4 5 7 9 13 13 14 13 15 19 23 26 26 25 27 28 29 32 32 30 24 20 17 18 20 19 15 15 14 16 18 20 20 20 19 21 24 25 23
15 11 8 5 2 5 9 12 10 9 12 16 19 23 22 20 22 26 27 29 31 33 23 18 19 16 20 22 21 20 19 18 20 20 18 17 20 24 28 30 32 32 28
13 9 4 3 6 9 9 6 8 12 14 15 19 19 17 20 22 24 24 32 35 28 25 30 27 8 16 19 20 20 20 18 20 19 23 25 28 32 32 31 30 30 28
9 3 2 5 5 5 6 7 10 13 12 17 21 20 18 21 26 28 28 25 28 29 32 32 17 13 16 20 19 19 19 21 22 25 28 31 33 32 29 27 26 25 25
3 1 4 2 5 6 7 9 10 11 12 17 19 20 25 26 26 26 28 28 26 26 33 35 21 17 14 18 18 18 20 21 25 29 31 30 27 26 27 27 25 24 24
1 2 2 3 5 4 8 8 8 13 18 22 27 29 26 27 28 28 28 29 31 29 30 22 9 11 14 17 15 17 22 26 31 30 27 26 25 24 24 24 25 25 26
3 3 2 6 7 7 4 9 15 20 25 27 23 21 23 26 30 30 34 35 25 26 18 12 12 12 14 13 18 24 28 29 29 28 27 26 25 25 24 26 28 25 24
2 4 4 2 2 7 12 18 21 23 23 20 19 22 26 29 30 33 35 28 22 19 19 16 14 12 10 19 22 26 27 26 26 28 28 28 27 27 28 25 21 18 19
5 4 3 4 8 12 18 23 23 24 20 15 22 27 28 31 35 33 28 24 20 17 17 10 7 10 16 21 24 24 25 25 26 27 27 25 24 21 20 20 21 22 21
6 4 4 9 12 17 21 22 23 20 18 23 27 25 29 34 30 26 23 18 11 8 5 7 10 13 19 23 23 24 27 27 27 24 20 19 18 16 16 19 22 21 20
4 4 8 10 15 18 20 21 19 22 25 26 24 28 30 25 23 20 18 14 8 6 7 9 12 18 21 20 21 23 26 26 24 19 18 15 14 16 18 20 21 21 21
5 6 9 13 17 19 21 22 23 23 24 24 28 27 24 23 20 16 15 10 5 6 7 12 18 19 18 18 20 23 23 23 21 19 17 15 16 19 18 15 14 15 17
5 9 14 18 19 20 22 21 22 24 25 28 26 23 22 22 17 12 10 10 4 7 13 16 16 15 15 17 20 22 22 19 19 18 17 17 20 17 14 14 15 14 14
9 13 17 19 19 20 20 21 23 25 29 27 18 21 21 19 15 9 8 8 10 13 14 13 12 13 14 16 20 19 22 22 19 19 19 18 18 16 15 13 10 11 12
12 16 19 19 20 21 20 22 26 27 24 24 20 19 19 18 14 9 9 9 11 12 12 10 11 12 14 16 20 20 22 23 21 19 18 17 16 14 12 11 9 11 13
15 18 19 19 20 21 22 25 26 22 21 22 20 19 17 14 12 9 8 9 11 12 11 10 12 14 14 16 18 18 21 22 21 18 16 15 14 15 13 10 10 11 13
17 18 19 21 22 25 27 26 25 20 20 21 16 16 13 11 11 12 11 10 13 10 11 11 12 12 14 16 17 18 20 20 20 18 16 15 15 16 16 15 13 12 12

GFSMW_850_spd_036.txt.gz
Wind_Speed
7 6 6 8 13 14 17 21 18 5 8 9 6 2 5 8 9 11 13 14 14 16 19 21 25 28 31 33 34 35 33 29 28 29 30 29 9 19 20 13 23 26 26
22 20 18 14 10 8 12 15 15 14 12 8 7 8 10 11 14 16 18 18 18 20 23 25 27 30 31 31 31 29 27 26 25 25 27 12 26 9 18 28 26 19 21
21 14 10 14 18 19 18 16 14 12 11 10 9 9 9 11 13 14 16 16 16 18 22 26 28 29 28 27 27 26 25 24 22 22 18 12 9 29 20 28 25 25 23
14 14 17 18 17 15 13 11 9 7 8 7 5 6 8 11 13 15 15 14 16 21 26 27 24 24 27 27 26 23 20 18 16 16 16 15 18 19 14 13 24 21 23
15 18 17 14 10 9 8 5 4 3 2 4 7 9 12 14 12 11 11 14 19 22 23 21 23 27 28 26 24 22 21 19 19 19 17 17 19 20 18 25 24 27 24
16 17 15 10 8 6 5 7 3 3 5 7 10 13 14 13 11 10 14 19 22 22 25 25 27 28 29 25 22 20 17 17 18 18 18 19 20 18 19 20 20 22 21
17 17 14 14 14 8 7 5 4 6 8 10 11 11 10 11 12 15 18 20 22 25 25 26 28 27 28 25 22 19 17 17 18 20 21 18 16 17 20 20 20 19 28
16 15 14 15 13 8 8 6 5 7 10 12 10 9 11 14 17 19 18 21 23 24 25 27 27 25 22 20 18 17 17 19 20 19 18 17 17 20 20 20 19 22 21
16 16 15 15 12 9 6 3 6 10 10 7 8 12 16 19 18 18 21 21 21 23 26 29 26 24 20 18 16 17 18 18 18 18 18 18 19 20 20 20 18 20 21
16 17 17 15 11 6 3 7 9 6 5 9 12 16 19 17 16 17 19 19 21 28 29 27 26 21 19 19 19 17 20 18 17 17 18 18 18 18 20 22 25 27 28
19 17 14 10 6 4 6 7 7 5 8 10 13 18 18 15 15 18 19 19 22 22 24 25 26 25 29 16 15 17 18 17 16 16 17 17 21 25 27 31 32 31 29
16 12 8 4 3 4 5 5 4 6 9 12 15 15 13 16 18 20 21 21 27 27 24 24 26 29 29 17 16 11 18 18 18 19 22 25 28 31 33 31 28 27 25
12 8 3 1 1 1 2 4 6 9 11 10 12 16 19 20 20 23 26 27 26 30 25 25 27 28 27 16 11 15 19 18 20 24 27 31 32 32 29 28 29 27 25
8 4 2 2 1 3 7 7 9 8 9 15 20 23 19 19 22 27 29 28 31 31 25 24 26 23 14 11 12 15 18 19 25 28 30 30 29 29 29 28 27 27 26
6 4 4 3 5 4 7 8 7 12 18 21 22 16 17 20 26 30 29 32 32 26 20 21 20 14 10 12 14 15 19 26 30 31 30 30 29 27 26 26 27 27 30
6 7 5 4 4 4 4 8 14 19 19 19 16 17 20 26 26 29 34 31 27 23 16 18 18 14 12 11 12 19 24 29 30 31 31 31 30 29 24 26 29 26 26
10 8 6 4 3 4 8 13 17 19 19 17 15 19 24 23 28 32 30 27 27 20 10 13 15 12 9 10 17 22 27 27 27 29 30 29 25 23 22 20 19 20 21
12 8 6 5 5 8 11 14 17 19 18 15 20 22 24 28 31 29 26 23 22 14 11 8 6 7 11 15 22 24 24 25 25 26 24 22 21 17 17 20 22 21 20
8 7 7 6 8 10 13 16 19 19 18 18 22 25 28 31 29 26 24 21 17 9 6 7 9 11 15 20 21 21 22 24 25 23 19 19 19 15 19 21 24 23 20
9 9 8 8 9 13 16 19 19 18 18 21 24 28 29 27 24 22 20 19 14 13 6 9 11 16 20 19 19 20 23 24 24 22 19 17 17 17 20 19 21 20 21
13 9 7 8 12 16 17 17 17 18 21 23 26 27 24 23 22 20 16 14 10 8 7 11 17 19 17 16 17 19 22 22 23 22 21 19 18 19 18 18 18 19 21
10 8 8 11 15 17 16 17 19 21 23 26 26 24 20 21 20 18 13 13 12 9 12 16 17 15 13 14 16 19 19 19 22 22 21 20 19 18 18 17 15 15 17
8 7 11 15 16 17 18 20 20 23 26 26 23 20 19 20 19 16 13 13 13 13 15 16 14 12 12 14 16 19 18 20 21 21 19 18 18 18 16 14 12 13 15
7 11 15 16 17 18 19 21 23 25 25 23 20 21 21 20 19 15 13 14 14 14 14 14 13 12 12 14 15 17 18 20 20 20 19 17 17 15 15 14 12 13 14
11 14 16 17 18 19 21 24 26 26 24 21 21 19 18 19 17 13 12 12 13 15 15 13 12 13 12 13 15 15 18 19 20 19 18 16 15 16 15 14 13 13 14
13 15 16 18 19 22 23 25 24 22 21 20 21 20 18 19 16 14 15 14 15 16 14 13 13 13 13 12 12 14 16 17 18 17 17 17 16 16 17 17 16 16 15

GFSMW_850_spd_039.txt.gz
Wind_Speed
7 6 5 7 10 11 10 13 16 11 3 9 11 10 5 4 1 5 8 10 10 10 13 15 19 24 26 26 25 25 26 24 27 25 18 16 10 10 20 17 20 25 24
11 9 7 8 7 7 8 8 11 13 15 12 10 6 3 3 7 11 11 13 14 13 14 19 23 23 20 21 23 24 24 23 23 19 16 11 13 8 9 22 20 22 21
20 17 16 19 23 23 22 20 20 19 16 11 6 2 0 3 7 10 12 12 10 12 18 21 21 19 22 24 24 24 22 19 18 18 10 11 10 20 12 17 16 21 24
17 19 24 25 24 22 19 17 15 13 10 6 3 4 5 7 9 10 10 8 11 16 18 18 17 19 21 23 23 22 20 19 12 12 11 12 14 14 16 14 18 20 20
16 23 23 21 19 18 16 12 11 9 6 5 4 7 8 8 8 8 7 11 14 17 17 19 19 21 22 22 23 22 21 17 13 11 11 12 13 15 14 22 20 20 20
20 21 20 18 17 15 11 10 8 10 7 4 5 6 7 6 6 7 11 14 16 18 20 20 21 22 24 25 23 22 21 16 15 14 14 13 14 15 14 15 20 23 22
22 22 20 18 16 14 6 12 11 7 4 4 5 5 5 6 9 12 14 14 17 18 19 21 24 27 26 23 21 18 17 17 17 17 17 17 16 16 18 17 21 21 24
22 21 18 16 15 11 8 10 8 5 3 4 3 4 6 9 10 12 13 15 17 18 21 24 26 25 24 24 23 23 20 17 16 19 19 20 18 19 21 20 19 23 26
22 19 17 16 15 11 10 8 6 4 2 2 3 5 8 10 12 13 14 16 18 21 23 25 23 22 23 26 25 25 27 18 15 19 19 19 19 20 20 20 21 18 29
19 17 17 16 14 11 9 6 3 1 2 3 5 8 11 15 17 16 18 20 21 22 23 26 26 24 24 25 22 28 18 14 14 19 17 17 18 19 21 23 25 23 26
17 15 15 14 12 8 4 1 2 1 3 6 9 11 14 15 16 18 19 20 23 26 26 27 24 23 24 21 25 21 18 12 16 17 17 18 21 23 22 23 23 24 23
16 16 15 12 10 6 4 2 3 7 7 9 11 11 16 19 19 16 20 23 26 24 28 28 23 21 22 21 27 23 15 14 15 18 18 22 25 29 24 23 22 22 22
19 17 13 11 8 4 3 5 8 6 7 7 12 18 20 17 16 18 22 25 27 29 28 25 19 19 22 22 16 13 13 16 18 19 25 29 30 27 23 23 25 24 23
19 16 12 9 5 4 6 7 6 5 7 13 18 18 15 14 16 21 25 27 29 28 25 21 17 20 18 14 10 12 16 18 19 25 29 30 26 23 23 24 24 23 23
19 15 11 9 8 7 5 5 3 7 13 16 15 13 13 14 21 24 27 29 27 25 25 21 14 16 15 14 12 15 15 19 25 28 28 28 28 29 26 22 21 21 22
17 13 12 11 8 7 6 3 6 12 15 14 13 13 13 20 23 26 28 27 25 24 22 13 10 12 13 12 10 13 19 24 26 27 28 28 27 20 21 19 18 17 18
16 14 12 9 9 7 4 7 10 13 14 13 10 12 18 22 24 27 26 25 23 21 18 9 9 9 8 9 14 18 23 23 24 26 26 24 18 17 15 14 18 20 21
15 13 10 10 8 6 7 9 12 14 14 12 13 16 20 23 25 26 23 22 22 17 12 8 6 7 10 14 19 22 22 22 23 23 21 18 17 15 15 20 20 20 19
14 11 12 10 8 7 8 12 14 14 14 14 16 19 22 25 26 24 22 21 18 17 12 10 9 10 14 20 20 20 21 22 22 20 18 16 16 17 17 19 19 18 18
13 12 10 8 6 7 12 14 15 15 16 17 18 21 24 24 25 22 21 20 17 13 11 9 11 13 19 19 18 19 21 22 20 19 17 17 17 16 17 17 19 18 18
15 11 10 7 8 10 14 15 15 16 17 18 21 23 22 21 23 20 18 14 16 14 11 11 13 18 19 17 16 17 20 18 17 19 18 17 19 17 17 16 14 17 20
9 9 6 7 10 13 15 15 16 17 19 22 24 23 23 22 19 21 19 16 15 13 13 14 17 18 16 16 16 17 18 18 18 19 20 19 19 18 17 16 16 16 16
13 5 10 9 12 14 15 15 16 19 22 24 24 22 24 21 21 21 19 16 16 16 17 17 17 15 15 15 16 17 17 17 17 18 19 19 17 16 17 16 16 16 16
4 9 9 11 12 13 14 17 20 22 24 24 21 20 21 20 17 19 17 13 14 17 16 16 16 14 14 15 15 17 17 17 17 18 18 18 16 15 15 15 14 14 15
10 9 10 11 12 14 16 18 20 23 23 22 21 19 19 20 18 20 17 15 16 15 16 15 16 15 14 14 15 16 15 16 18 17 16 16 15 15 14 14 14 15 15
8 10 11 12 13 15 17 19 21 22 21 21 20 18 19 19 19 20 19 18 17 17 16 16 15 15 15 15 15 15 15 15 17 16 16 15 15 15 15 15 15 15 16

GFSMW_850_spd_042.txt.gz
Wind_Speed
7 7 9 11 15 16 15 14 10 11 7 12 8 11 6 5 2 3 5 6 6 7 8 9 12 14 11 15 16 16 17 18 17 20 22 22 18 13 15 16 14 16 17
9 8 7 9 11 14 14 10 9 11 15 14 12 9 10 6 4 5 5 6 7 8 10 12 9 14 15 15 17 17 18 18 17 18 21 21 21 21 13 18 18 18 17
12 12 13 12 15 16 17 17 18 20 17 14 12 10 8 5 4 7 8 9 8 9 14 19 22 20 16 15 16 15 15 18 18 17 18 21 20 23 23 17 20 18 20
14 15 17 18 20 20 20 20 19 16 15 14 10 8 5 4 7 7 6 5 11 14 18 19 19 17 14 15 16 17 17 17 21 19 19 19 20 19 22 20 21 21 20
16 20 20 20 20 22 19 18 16 13 14 12 9 6 5 5 8 6 6 8 10 15 15 14 15 14 17 18 19 18 18 19 18 17 16 16 17 19 20 21 20 22 21
19 20 19 18 18 20 18 15 13 15 12 8 7 6 6 3 3 4 6 9 11 12 13 14 15 18 19 20 20 19 18 18 17 16 15 14 15 18 17 19 20 23 25
22 21 19 17 16 14 13 13 10 9 8 7 6 5 3 2 3 6 9 11 14 15 17 16 18 21 22 21 20 19 19 18 16 18 18 14 14 15 16 17 21 25 28
21 21 18 16 15 13 11 10 10 8 8 5 5 4 2 4 6 8 11 13 14 15 15 16 19 21 21 21 20 19 18 18 19 20 15 13 15 14 15 18 21 26 29
22 20 18 16 14 13 10 11 10 8 6 6 7 7 8 9 9 13 14 11 12 13 15 18 20 21 21 21 20 19 18 19 18 14 13 14 14 15 16 19 20 22 29
20 19 18 16 14 12 11 13 9 9 7 7 7 8 11 12 13 14 9 9 12 16 18 20 20 21 20 20 19 17 19 19 16 13 15 15 14 16 18 21 23 24 28
20 19 16 14 13 12 11 11 11 8 6 8 9 12 8 11 12 7 9 11 15 17 18 20 21 20 18 17 18 17 19 21 14 15 14 15 16 19 22 24 26 27 28
19 18 16 16 15 13 12 12 11 5 7 9 7 5 10 11 7 8 10 14 16 17 19 20 19 17 17 19 18 19 16 11 13 14 15 17 19 23 25 25 26 27 28
19 18 17 17 16 15 13 13 6 7 7 5 5 7 8 7 8 10 13 15 17 19 19 18 17 17 15 17 15 11 10 11 12 13 16 20 23 24 24 25 26 27 28
20 19 18 17 16 14 14 10 10 4 6 5 7 8 8 9 10 12 15 17 18 19 18 18 17 16 14 12 10 9 10 11 12 15 19 20 20 21 21 24 24 24 25
21 20 19 17 15 14 14 7 7 6 6 7 9 10 10 12 11 14 16 18 18 17 16 15 13 13 9 7 7 8 8 12 15 17 17 17 20 28 24 19 19 20 20
22 20 18 16 15 14 10 9 7 5 10 11 10 9 10 11 13 15 17 17 16 16 15 15 9 8 7 12 9 10 11 15 16 16 17 17 19 16 22 20 20 15 18
21 19 17 15 14 12 10 6 5 10 12 11 9 9 13 12 14 16 16 15 15 15 14 13 11 9 8 9 11 15 16 14 13 15 16 16 15 19 17 18 18 21 20
20 18 16 17 16 12 8 8 9 12 13 9 9 10 11 13 15 15 15 15 15 14 13 12 9 6 8 12 16 19 13 12 13 15 14 16 17 17 20 18 20 19 18
18 16 15 15 14 9 10 8 12 11 11 9 10 11 13 15 14 14 15 14 16 14 12 12 10 9 9 15 19 18 14 13 15 14 14 16 15 18 20 18 19 19 18
16 17 17 17 12 8 10 12 9 9 9 10 12 12 14 14 13 14 16 14 14 12 13 11 9 12 12 18 19 16 13 14 14 14 14 17 21 23 17 17 17 17 17
17 17 17 13 10 9 12 11 8 9 10 14 15 14 14 13 14 15 15 15 14 13 14 13 12 12 14 14 17 16 15 13 14 14 14 14 21 20 18 16 13 17 19
16 13 12 10 10 10 11 8 8 9 14 16 17 16 14 13 16 17 16 14 12 12 12 14 16 14 16 15 15 14 15 16 15 14 14 17 20 18 16 15 17 17 14
17 14 6 7 8 10 11 10 9 14 17 18 18 14 12 14 15 16 14 14 12 14 13 14 15 13 13 11 16 14 14 16 15 14 16 17 17 16 13 16 15 13 12
12 6 4 10 9 11 12 12 15 16 17 17 15 13 13 15 15 14 13 13 13 13 13 14 15 14 14 12 12 11 12 13 12 14 17 16 15 15 15 12 12 11 13
10 6 7 10 11 12 13 15 16 17 18 16 16 14 13 14 15 14 14 14 14 14 12 13 15 17 16 13 15 14 12 11 13 17 14 11 11 10 10 9 10 10 12
1 6 10 12 13 14 14 15 16 17 17 18 16 14 14 15 16 16 15 17 20 19 19 17 16 16 17 17 16 16 15 16 15 15 11 11 11 11 9 9 9 9 11

GFSMW_850_spd_045.txt.gz
Wind_Speed
14 11 13 13 14 17 19 20 20 9 9 11 9 11 13 10 6 3 4 4 1 2 4 3 6 10 10 13 14 15 17 18 19 22 23 22 22 18 18 21 18 16 19
14 14 13 13 16 19 20 20 13 12 9 8 9 11 11 8 6 6 2 2 5 6 3 9 7 9 12 14 15 18 19 20 19 22 25 28 26 20 15 15 20 22 22
17 14 14 14 16 17 17 16 14 13 14 14 13 11 10 10 7 4 3 4 6 8 9 7 9 12 13 15 17 17 19 23 23 20 23 27 26 26 23 25 25 25 21
16 16 16 16 16 17 16 16 18 18 17 15 12 12 7 7 6 4 7 6 5 4 6 9 11 12 14 16 17 19 21 22 24 23 20 20 23 25 27 23 24 22 22
18 18 19 20 20 20 20 18 18 16 16 13 11 10 7 6 5 4 6 7 9 9 10 11 12 14 16 18 21 21 22 23 23 23 22 21 21 21 22 27 24 23 22
19 20 21 21 22 20 19 17 16 15 14 11 10 9 7 6 5 5 7 9 10 12 12 13 14 17 19 20 22 23 23 24 23 22 20 18 18 20 20 22 23 22 24
21 23 23 22 21 19 17 16 15 13 12 11 9 8 7 5 5 7 8 11 12 13 14 15 18 19 21 22 22 23 23 25 22 20 19 18 19 15 17 18 20 23 25
22 23 22 21 20 18 16 15 14 13 12 11 10 8 6 4 6 7 10 11 12 13 15 17 17 19 20 21 22 22 23 24 21 20 18 19 15 14 16 17 20 26 29
23 24 22 20 19 17 16 14 15 14 14 13 11 8 5 5 8 9 9 10 11 12 15 17 19 19 20 21 21 22 21 21 20 17 20 16 13 15 16 17 18 24 29
24 24 22 20 18 17 16 15 16 16 15 12 9 6 7 9 8 8 8 9 10 12 15 16 17 19 21 20 20 21 19 20 17 18 18 14 15 15 15 17 22 26 30
24 23 21 19 18 17 16 16 16 17 14 10 7 9 10 8 7 8 9 10 11 13 15 17 19 20 20 20 19 20 21 20 19 18 14 15 14 15 17 22 26 28 29
23 22 21 19 18 18 17 17 16 16 11 7 10 12 6 7 9 10 10 10 13 15 16 18 19 19 19 19 21 24 19 16 13 11 12 13 14 18 22 25 26 28 29
22 21 20 20 20 19 18 18 17 13 8 12 5 9 8 10 10 10 11 12 14 16 17 18 18 19 19 18 19 17 14 12 10 11 12 15 18 22 22 23 24 25 27
21 21 21 21 20 19 19 18 15 10 5 4 10 9 10 11 11 11 11 13 15 17 17 17 17 16 20 17 14 12 9 9 10 12 15 18 19 19 19 22 22 21 23
21 23 22 21 20 19 19 17 11 9 7 9 9 9 11 10 10 11 13 14 16 16 16 17 17 16 13 10 10 9 12 11 13 16 16 16 18 26 25 21 20 19 20
21 22 21 20 20 20 19 14 12 9 9 7 8 10 10 10 11 13 14 16 16 16 16 16 16 14 11 18 17 10 9 13 15 15 15 16 17 16 22 19 24 25 19
18 20 20 20 18 18 17 15 10 9 6 9 10 10 10 10 12 14 15 16 16 16 17 17 15 14 13 17 12 11 15 13 12 13 15 15 14 18 17 18 22 21 22
16 18 18 17 17 17 16 12 10 8 7 9 9 9 11 12 13 15 16 16 16 17 18 16 15 15 14 16 15 14 17 10 11 13 14 14 15 17 24 25 20 19 19
13 15 16 16 17 16 13 9 8 6 7 9 10 10 12 13 15 16 16 17 18 20 18 18 14 15 15 17 18 18 15 10 12 12 13 14 15 18 23 24 18 19 18
12 13 14 15 15 11 8 4 5 9 9 9 10 11 13 14 16 16 16 17 17 18 18 18 17 14 15 17 20 19 15 12 12 12 12 16 22 25 24 21 17 17 16
11 13 14 14 12 9 3 2 7 9 9 10 10 13 14 16 16 15 16 18 18 22 21 23 21 14 17 16 20 22 15 11 12 12 11 10 22 22 20 18 16 17 23
11 12 13 12 6 3 0 4 7 10 10 12 13 14 16 15 15 16 17 17 19 19 18 20 18 15 16 18 21 18 15 15 16 13 12 15 19 18 16 15 15 17 14
10 10 9 7 4 1 7 9 9 10 13 14 14 15 14 14 15 16 18 19 17 18 19 17 16 16 14 14 17 17 17 16 15 12 13 16 17 16 14 13 16 15 13
9 8 6 4 3 4 10 12 13 15 13 14 14 14 14 15 16 15 16 19 17 19 18 17 15 15 15 15 14 17 17 17 16 11 14 20 14 15 15 14 11 12 12
9 7 3 2 7 11 14 12 11 13 13 14 15 15 15 15 16 17 18 20 21 21 20 18 14 16 18 17 18 18 17 17 15 19 19 11 11 11 10 10 11 11 11
6 3 3 6 11 11 11 12 12 12 14 16 15 15 16 16 17 18 21 21 24 23 24 22 24 23 22 19 22 22 22 20 19 18 13 12 13 12 11 10 11 10 11

GFSMW_850_spd_051.txt.gz
Wind_Speed
28 27 27 27 31 28 31 25 25 26 24 23 19 18 15 14 13 10 9 7 5 1 3 5 8 8 9 11 13 16 21 21 21 25 31 30 12 15 11 13 15 18 23
27 28 24 28 32 33 32 26 23 21 20 18 16 14 13 11 10 11 10 7 5 3 4 4 8 12 14 16 18 19 20 20 22 27 29 17 30 11 24 25 25 28 30
32 30 27 21 30 35 31 24 22 16 17 16 9 12 15 16 16 14 8 7 7 5 8 15 15 15 17 17 18 19 21 23 26 24 23 19 13 36 27 29 20 27 25
30 29 28 25 21 28 26 19 16 14 20 17 18 18 21 18 10 4 7 8 7 8 12 14 16 17 16 17 18 20 24 24 24 28 28 27 28 30 30 15 28 26 22
38 30 30 27 24 23 18 17 15 21 18 23 19 18 12 11 14 15 14 10 6 10 12 12 10 11 14 16 19 24 24 25 27 26 26 27 29 30 30 31 27 25 24
37 33 31 29 27 26 25 21 24 21 21 23 19 17 15 18 18 15 15 10 4 6 11 13 12 12 15 19 24 27 26 25 25 25 25 27 26 27 26 29 28 26 26
29 33 32 28 21 18 25 26 23 23 28 24 19 18 18 20 19 15 13 13 11 14 12 16 17 19 23 27 26 25 24 25 24 24 24 25 25 24 23 22 23 23 24
25 25 24 23 20 23 20 23 29 29 27 26 22 21 19 19 17 16 15 14 16 15 21 20 24 27 27 24 23 23 24 23 22 23 22 25 24 18 19 20 20 25 25
21 22 23 23 26 27 27 27 24 25 24 22 22 24 23 23 19 19 18 19 16 16 24 23 23 22 23 22 22 23 22 22 25 25 24 25 20 19 20 20 15 15 20
22 23 27 27 28 28 28 26 21 21 22 24 22 23 24 21 18 16 15 16 14 17 19 22 21 20 21 21 21 21 20 23 24 27 30 24 19 17 13 16 16 16 19
26 26 29 29 30 28 28 24 25 19 26 27 26 27 25 22 19 15 13 9 14 20 17 20 21 21 22 21 22 22 24 27 27 27 25 19 13 13 12 14 16 18 18
29 28 28 30 30 31 31 27 26 24 28 28 26 20 17 14 16 4 9 15 18 16 19 20 21 22 22 23 22 23 26 26 24 19 16 14 12 12 16 19 21 24 27
30 29 29 30 33 34 33 31 28 23 26 22 19 14 9 5 5 13 11 13 16 20 21 22 23 21 21 23 25 26 28 22 20 15 13 14 15 17 20 24 26 27 31
30 30 31 33 38 30 27 27 24 23 24 21 13 3 5 8 11 9 12 20 20 22 23 23 20 20 21 23 25 27 21 20 16 15 12 13 16 19 22 26 28 27 30
25 28 31 29 30 25 21 21 24 24 20 16 10 7 9 13 11 13 18 18 19 22 22 22 22 22 24 27 27 26 18 21 21 19 16 17 19 22 25 24 25 28 28
10 6 22 25 25 24 23 23 25 21 15 13 11 14 12 11 13 16 14 19 23 19 22 25 25 24 27 28 32 22 21 20 17 16 16 18 21 23 21 23 25 25 28
9 6 12 16 20 23 23 25 21 18 16 17 15 9 10 7 11 13 16 21 20 23 26 26 24 27 29 33 23 19 19 18 17 17 16 18 21 22 22 24 26 25 26
9 6 4 11 17 19 21 19 15 16 17 13 6 3 3 7 10 16 19 23 23 22 24 25 27 29 29 28 21 19 20 20 19 19 19 21 22 22 23 26 25 25 24
5 5 10 16 20 19 19 20 19 13 7 7 4 3 2 14 15 18 20 21 21 25 26 28 29 29 29 28 24 24 21 22 19 20 19 20 19 21 24 24 26 25 21
10 18 20 21 22 21 20 20 16 14 9 5 2 12 19 11 18 18 18 21 24 26 27 26 28 30 32 27 22 20 19 20 19 21 23 19 19 21 22 24 25 23 19
19 20 19 20 19 15 14 13 9 7 6 12 19 16 14 15 17 21 23 22 24 26 26 28 30 32 25 21 19 19 19 20 20 21 18 18 21 21 21 23 22 18 16
19 17 18 18 15 11 9 9 6 13 10 13 17 16 18 20 20 21 20 20 22 24 25 29 32 30 21 20 20 18 19 18 20 20 18 18 20 20 19 18 14 13 13
16 13 11 9 6 5 10 12 3 5 7 11 17 19 18 18 18 19 21 23 23 24 26 28 32 30 24 22 20 21 20 20 23 21 19 19 17 13 18 13 12 12 15
10 6 4 6 7 4 2 4 7 10 13 16 19 18 18 19 20 21 22 23 22 25 29 31 32 31 27 24 22 24 21 21 23 22 23 19 17 18 19 15 14 14 15
7 5 6 8 8 9 10 10 12 14 17 18 20 22 23 24 26 27 27 27 24 25 27 30 31 29 30 28 25 23 26 25 25 24 21 20 22 25 21 16 16 15 16
10 10 10 9 8 8 10 13 14 15 18 22 24 26 29 31 31 30 30 24 24 27 31 25 26 29 28 27 28 26 26 25 24 24 27 28 28 27 21 17 17 16 14

GFSMW_850_spd_057.txt.gz
Wind_Speed
31 31 30 30 29 32 34 32 30 29 28 27 28 26 25 23 19 14 14 14 14 13 11 9 5 5 8 10 11 11 11 15 20 23 25 13 3 20 8 4 19 19 16
34 36 34 34 34 34 33 33 32 31 31 31 29 28 24 21 16 15 13 13 14 12 10 7 7 8 9 10 11 12 14 17 21 23 21 10 18 4 9 10 23 9 12
39 39 41 39 37 39 35 32 33 34 35 31 29 26 24 20 19 19 17 16 15 13 11 9 9 9 9 11 13 16 17 18 20 22 20 9 6 23 10 21 8 21 20
43 42 44 42 44 45 38 32 33 35 34 30 29 29 28 25 25 21 18 17 16 13 11 10 10 9 11 13 14 15 16 19 22 23 18 17 17 14 15 10 23 23 22
47 47 46 43 44 44 41 36 35 34 31 28 29 30 28 24 19 19 19 18 15 14 13 12 11 10 10 10 14 15 17 21 23 21 21 21 20 19 20 26 21 27 28
44 46 46 45 45 43 42 39 32 31 30 29 27 30 25 19 19 20 21 18 16 16 17 15 13 9 8 11 14 19 22 24 23 23 23 22 20 20 21 26 29 32 33
46 46 46 46 46 44 39 40 35 32 29 27 27 27 21 17 18 18 20 21 22 23 22 19 14 11 10 16 22 23 26 24 23 24 23 22 21 20 22 26 31 30 33
44 45 46 45 44 40 40 38 29 32 28 28 26 24 22 19 19 21 22 26 27 27 23 17 16 13 18 18 18 22 22 23 22 21 20 21 21 22 25 25 26 27 23
39 44 42 43 39 37 35 24 22 24 25 25 25 25 23 25 28 27 25 28 29 27 18 14 12 15 16 17 20 20 21 21 21 20 20 24 25 26 25 19 20 21 18
31 38 40 37 37 32 28 24 24 23 25 26 25 26 27 30 29 29 33 32 27 16 20 17 14 13 14 18 21 23 22 21 21 21 23 25 21 19 16 16 20 18 19
24 26 29 34 34 30 27 24 24 25 28 27 28 29 31 33 32 32 31 30 27 26 16 22 13 9 15 20 23 24 22 22 22 23 26 26 19 17 17 17 17 17 19
18 20 24 28 30 29 28 28 28 30 30 32 32 33 33 34 32 30 28 21 17 17 15 6 8 14 19 21 23 22 21 21 23 27 28 24 17 16 18 18 18 20 20
25 27 29 29 28 29 32 32 34 36 34 36 37 34 32 31 26 24 19 20 15 7 4 9 11 17 20 22 21 22 20 22 25 28 25 20 17 20 19 18 20 21 24
29 31 32 33 33 33 32 33 38 37 37 38 37 34 33 27 24 20 17 10 6 3 7 11 19 23 22 20 23 20 20 25 26 24 21 23 23 21 19 20 22 23 24
24 30 31 31 31 33 34 35 33 33 33 33 31 27 26 23 20 15 12 8 5 7 15 19 24 19 19 22 21 21 22 25 25 25 22 21 21 20 20 21 22 22 23
6 15 23 27 29 32 32 33 29 29 28 28 26 24 19 13 11 12 9 3 7 16 17 24 19 19 21 20 21 22 24 25 26 24 20 20 19 19 20 22 22 22 22
7 4 7 16 21 24 28 29 27 28 26 24 21 17 13 14 11 7 6 16 15 13 22 19 20 20 21 22 22 24 25 26 28 24 22 22 21 21 21 22 23 23 22
7 5 5 9 14 19 23 26 26 24 23 21 18 17 14 13 12 8 23 14 14 19 19 21 20 22 22 23 24 24 26 29 27 23 23 23 23 22 20 22 23 22 22
5 5 8 11 15 19 21 22 22 22 22 20 19 15 9 5 15 21 13 14 18 19 20 21 23 24 24 24 24 24 26 29 26 22 22 22 22 20 21 23 21 22 22
7 9 10 13 14 16 18 21 22 20 17 13 10 5 12 21 10 10 14 17 20 21 23 24 24 25 26 25 25 25 27 28 27 23 22 21 21 19 19 20 20 23 20
11 11 13 14 16 19 18 18 16 13 7 6 14 20 9 11 13 16 19 19 21 23 24 26 26 27 28 28 26 25 28 28 28 26 24 22 21 21 20 19 21 20 19
18 19 21 22 19 15 10 10 4 6 9 12 8 8 11 14 16 17 18 19 22 25 27 30 32 31 30 28 28 28 28 27 28 27 25 22 20 23 22 20 20 17 17
21 19 17 17 14 8 4 3 1 4 3 5 8 10 12 13 16 18 21 24 25 29 32 33 35 37 36 33 31 29 30 28 27 28 26 23 22 22 24 22 19 17 17
18 16 13 10 8 6 5 3 2 2 5 7 10 12 15 19 22 24 27 30 32 33 35 37 38 38 38 37 32 30 30 28 27 28 27 27 24 26 26 24 23 22 18
15 11 9 11 10 6 3 0 3 6 9 12 16 19 22 26 30 31 32 33 35 33 35 37 38 39 42 41 37 34 31 27 26 26 26 26 27 26 28 28 25 25 22
16 14 11 9 7 3 1 3 7 11 15 18 21 24 27 29 32 35 40 38 39 39 38 38 37 40 41 38 37 41 42 24 24 24 26 27 29 29 29 27 24 25 27

GFSMW_850_spd_060.txt.gz
Wind_Speed
31 27 22 26 27 28 26 26 24 24 25 25 25 25 24 22 19 17 15 14 13 15 15 13 11 9 7 5 5 5 6 10 15 19 18 11 6 13 11 6 21 18 11
28 32 30 29 33 30 27 26 25 25 27 26 26 24 22 22 19 18 17 16 16 16 14 12 10 8 6 4 4 5 9 13 16 19 18 10 12 5 12 18 16 11 17
30 31 33 33 34 32 30 28 27 26 28 27 27 25 25 24 23 22 21 19 18 16 14 13 10 8 7 6 5 8 11 14 16 19 18 9 6 21 12 17 15 14 20
33 33 34 36 37 34 31 30 31 31 32 32 31 30 30 30 28 24 19 19 20 18 16 14 10 10 10 7 7 12 13 16 19 21 17 16 16 11 10 7 9 19 19
38 38 39 40 39 36 33 32 33 33 35 34 33 33 33 29 22 18 20 21 21 19 16 15 14 14 12 7 7 10 15 20 22 19 17 16 16 15 17 22 15 20 22
41 41 40 39 39 38 35 35 37 36 36 35 37 36 35 26 24 22 22 24 23 20 18 18 17 16 12 11 8 16 20 20 19 19 18 17 16 16 17 20 24 26 29
42 43 43 42 40 40 35 36 36 39 38 36 39 39 30 27 25 21 22 24 23 23 23 24 25 24 18 17 10 12 16 19 20 20 19 18 17 17 18 21 26 29 29
42 43 45 45 44 40 38 39 38 34 38 40 38 31 27 23 19 19 20 23 24 25 26 26 24 18 21 19 15 20 16 19 19 19 18 17 17 20 22 23 23 25 23
40 44 44 44 44 42 40 40 40 36 34 34 28 28 28 24 23 22 24 24 26 30 31 31 29 18 27 17 17 12 19 19 18 17 17 18 20 20 18 16 15 16 21
24 33 40 42 42 40 38 35 37 30 25 29 30 29 23 24 25 27 29 29 30 32 31 24 24 20 19 16 10 13 17 17 16 16 17 19 21 20 17 14 13 17 18
16 22 29 33 36 36 34 31 30 28 25 22 24 24 26 28 30 30 31 31 30 31 24 23 21 19 13 7 11 15 16 17 16 16 19 22 22 19 16 15 15 17 19
10 15 18 22 28 29 27 29 28 24 23 24 25 28 30 32 32 33 32 28 27 22 24 19 15 12 7 11 15 16 17 17 17 18 22 23 20 18 17 17 19 19 19
12 14 16 17 19 23 28 30 22 23 26 27 30 32 32 33 33 29 27 21 20 21 15 8 7 6 10 16 16 16 18 18 19 22 23 22 20 19 20 21 20 19 20
17 18 19 22 23 26 27 23 24 24 25 29 32 30 31 30 25 20 16 17 12 10 10 6 7 11 16 16 16 20 19 20 21 23 23 23 21 21 21 19 18 19 21
17 22 23 22 21 23 22 21 23 25 28 29 28 28 27 23 15 18 14 12 10 5 6 11 16 17 20 18 20 20 21 21 24 23 23 24 21 21 20 19 19 20 22
4 9 15 17 20 22 21 20 19 19 18 21 24 23 21 16 15 13 11 7 7 11 16 25 19 17 17 21 20 21 22 23 24 25 25 25 20 21 21 21 21 22 22
10 6 2 4 9 12 13 15 16 17 18 18 19 18 14 12 9 9 10 11 11 22 16 14 15 18 22 22 22 22 24 25 25 25 27 25 22 22 23 23 23 23 23
9 8 6 4 2 5 9 12 15 17 16 16 14 14 13 13 14 7 7 18 26 15 16 18 20 22 23 23 22 23 26 27 27 27 27 26 25 24 23 24 25 23 25
9 7 5 2 3 6 9 11 12 13 16 19 18 16 13 8 10 16 21 12 13 16 18 21 23 24 25 23 24 25 28 30 29 27 26 26 27 24 21 23 23 24 24
7 6 5 5 5 8 8 11 15 19 19 17 12 7 10 17 16 8 11 14 18 20 21 23 23 24 27 26 27 28 30 32 32 31 28 26 27 25 22 23 22 23 22
9 9 10 10 11 12 12 17 19 17 12 5 8 13 8 6 9 12 15 17 18 21 23 26 27 28 29 32 31 31 30 33 34 34 33 28 24 24 24 24 24 23 19
14 14 16 19 19 16 13 16 11 4 6 5 2 2 5 7 10 12 14 17 20 24 28 32 36 37 36 34 33 31 30 33 37 38 35 32 23 22 24 24 25 25 21
20 20 20 23 19 15 10 6 3 2 1 2 4 6 8 11 14 18 21 24 27 30 34 36 39 43 42 42 38 33 32 34 34 38 34 31 26 24 25 26 25 25 23
22 19 18 17 13 8 4 3 2 2 3 5 7 10 13 17 20 23 26 29 30 32 34 36 38 40 43 43 43 43 38 34 35 37 37 32 30 26 26 26 28 28 26
20 17 14 9 7 5 4 3 1 3 6 8 12 16 19 22 26 28 30 32 31 30 31 32 34 35 40 42 36 38 39 36 37 37 37 27 27 29 27 27 28 28 29
18 13 9 6 9 6 2 1 4 7 11 14 17 21 24 27 29 32 34 32 32 31 29 27 27 33 33 35 35 35 35 33 30 35 36 24 26 26 27 26 29 27 28

GFSMW_850_spd_063.txt.gz
Wind_Speed
22 24 22 23 28 29 27 26 23 20 21 23 25 26 26 24 22 20 19 13 12 12 14 15 13 12 12 9 8 6 6 6 7 10 13 8 7 8 9 12 13 15 14
24 29 26 24 27 32 31 27 25 23 23 23 24 25 23 24 21 21 19 15 16 16 16 15 14 15 12 10 9 8 7 6 8 10 11 3 7 8 13 15 16 16 16
27 31 33 30 28 31 32 29 26 26 26 26 26 26 25 25 25 25 18 19 18 17 16 16 16 15 12 12 12 9 6 6 9 12 10 5 4 13 8 16 15 17 18
27 28 34 36 35 34 34 32 29 28 28 28 29 28 29 29 28 23 18 19 18 19 20 20 19 17 16 15 13 10 7 8 11 15 14 13 13 7 11 9 13 18 19
33 32 34 34 34 32 32 30 28 27 28 28 28 29 30 30 27 23 21 22 21 23 24 22 21 20 20 18 15 13 10 11 13 13 15 15 15 15 15 18 14 13 15
36 34 33 33 34 32 31 30 28 28 27 27 28 30 32 32 30 25 25 25 26 27 27 25 24 24 23 21 19 17 17 14 15 18 17 15 13 11 12 16 17 18 18
37 36 35 37 37 35 34 33 33 32 32 32 29 31 34 34 33 27 28 27 29 30 29 28 28 27 24 24 20 19 24 20 26 15 16 17 16 14 15 15 19 20 17
35 37 36 36 37 36 35 32 35 35 31 24 29 31 35 35 36 29 28 27 29 28 30 30 28 27 25 22 18 22 19 19 14 14 16 16 14 16 17 17 17 20 18
22 32 36 37 38 39 39 36 37 35 34 32 26 33 33 36 35 32 30 27 28 31 32 30 28 27 22 23 22 17 16 14 14 15 15 15 15 17 19 19 18 15 20
10 18 25 31 35 37 35 36 37 34 36 34 31 32 30 31 34 31 30 29 30 33 33 30 26 26 21 19 17 16 11 13 14 14 14 16 17 20 20 17 16 14 16
4 8 13 18 24 29 30 30 32 30 31 28 33 29 25 28 27 30 32 31 33 32 32 21 25 22 18 11 10 11 14 14 15 15 15 17 19 21 19 17 15 15 16
3 4 6 9 13 16 18 20 22 24 23 24 26 24 21 23 27 30 29 30 28 28 24 22 19 14 11 12 7 13 15 15 16 15 16 19 20 21 19 17 17 18 19
7 9 10 10 12 12 14 17 18 17 17 19 19 22 24 26 28 27 25 20 17 21 16 16 11 9 12 8 11 14 14 17 17 16 18 21 21 22 18 18 19 20 20
9 10 13 13 14 15 16 15 15 16 18 20 20 22 23 23 19 18 12 5 19 18 15 12 14 12 13 13 12 14 17 19 19 19 21 22 23 23 21 20 21 21 21
11 10 12 11 12 12 13 15 17 19 19 17 16 14 14 12 12 15 10 15 12 11 13 7 13 18 19 16 13 17 20 21 22 22 23 24 24 25 24 24 21 21 21
1 4 5 7 8 8 7 6 7 8 8 9 9 10 10 13 15 11 11 12 11 4 6 17 18 16 13 13 15 20 23 24 25 26 26 26 27 27 25 25 25 24 23
12 11 11 8 5 4 4 4 5 5 6 6 9 12 14 13 11 11 9 6 2 9 21 16 13 14 16 18 21 22 26 27 28 29 30 29 30 27 27 27 26 28 29
14 14 13 11 9 7 7 7 8 8 8 11 14 14 13 13 12 8 5 11 13 14 10 12 15 18 20 21 23 24 26 29 31 33 32 32 32 29 27 28 27 27 26
14 13 12 10 10 9 10 10 12 11 13 16 16 16 12 8 3 11 13 10 8 11 14 17 19 20 22 22 23 24 28 31 35 36 36 35 34 31 29 28 29 28 26
14 13 12 13 12 14 13 13 15 17 18 17 15 10 5 8 10 4 5 8 12 14 16 17 19 21 24 25 26 26 30 35 37 38 39 39 36 34 31 29 30 30 27
15 15 15 15 15 16 16 20 22 19 15 10 6 6 4 3 4 6 8 11 14 17 20 23 26 28 29 31 31 31 31 34 37 38 39 40 38 37 35 29 31 32 24
18 17 20 21 21 20 18 22 17 13 7 4 2 2 3 4 6 9 12 15 18 22 26 29 31 32 33 33 33 31 28 28 31 36 37 37 38 37 37 29 30 27 25
22 23 24 27 25 20 15 14 9 3 2 2 1 2 5 7 10 13 16 19 21 24 26 27 30 29 29 28 30 29 30 29 29 31 33 36 32 38 40 31 28 25 27
26 25 25 24 22 15 9 4 5 4 2 2 3 4 7 11 13 16 18 19 21 22 22 23 24 27 27 27 28 33 35 34 33 34 31 32 33 31 36 33 25 25 28
26 24 21 19 16 10 7 8 6 3 2 3 6 8 11 14 16 18 19 19 19 19 19 17 19 25 28 30 33 36 40 38 35 35 32 31 30 31 30 30 26 26 25
27 23 18 14 13 11 9 6 4 1 3 6 9 12 15 17 18 19 19 20 19 20 19 19 19 21 25 32 34 35 38 33 31 28 27 31 29 25 26 22 23 23 24

GFSMW_850_spd_069.txt.gz
Wind_Speed
18 20 22 23 25 27 24 21 18 17 16 15 16 16 17 18 17 19 20 20 20 20 19 15 18 17 14 14 16 14 13 8 8 6 6 9 10 9 8 10 9 8 10
22 22 25 28 27 27 22 21 19 17 15 15 16 16 17 18 18 20 20 18 20 21 21 18 19 18 15 16 17 15 11 9 9 5 6 7 5 10 11 10 11 12 11
23 25 26 28 28 27 25 23 20 18 18 16 16 16 17 16 18 19 19 23 22 20 21 22 20 19 17 17 18 17 14 11 9 9 4 3 6 10 11 12 12 11 11
24 25 26 28 29 28 26 25 23 21 20 21 19 19 18 19 18 20 20 21 21 23 22 23 22 22 21 19 19 17 15 14 14 7 12 11 11 8 10 7 12 13 12
25 27 29 30 29 28 28 26 25 24 23 23 22 20 20 19 16 19 18 20 23 22 25 23 22 25 25 23 21 18 16 19 11 12 12 14 10 12 13 16 14 14 16
25 26 28 28 29 29 29 27 28 27 25 24 25 24 22 21 19 21 20 20 22 23 26 26 30 28 26 22 20 19 20 20 14 13 13 12 11 12 15 18 19 20 18
26 28 28 29 29 30 30 28 28 29 28 27 26 27 26 23 24 24 24 26 28 26 28 29 32 30 27 21 19 23 25 18 17 18 16 11 12 13 14 16 18 19 18
26 31 30 30 30 30 30 29 29 29 29 29 29 27 26 24 24 25 25 26 25 26 27 28 33 31 23 23 22 27 19 18 18 23 18 10 14 13 14 16 16 20 21
16 26 30 30 29 29 31 34 30 28 28 29 27 26 25 25 26 26 27 26 26 29 25 27 29 28 24 26 34 24 20 23 22 19 17 15 14 14 15 15 15 18 23
6 14 22 27 28 27 28 29 28 28 27 27 27 24 24 26 28 27 23 24 23 24 27 28 24 23 30 31 21 19 24 25 18 16 13 14 15 15 15 16 17 19 22
4 7 13 19 24 25 25 26 26 26 26 25 24 23 21 23 23 24 22 21 20 20 23 21 23 31 31 24 21 21 20 14 17 19 13 17 17 17 17 17 19 20 21
2 5 7 11 15 19 21 22 22 23 23 22 22 21 21 24 21 23 22 18 19 21 25 23 26 18 16 20 24 16 16 19 17 10 17 18 18 19 19 20 21 23 23
7 6 8 10 12 14 17 18 18 17 19 18 24 27 24 21 21 20 19 17 15 17 15 8 10 15 21 15 11 15 16 13 11 17 18 19 20 21 22 23 24 25 26
11 10 9 10 11 13 14 15 18 21 26 28 28 24 21 17 16 16 15 13 13 16 10 9 11 14 11 10 12 13 8 11 16 18 19 21 22 24 25 26 26 27 28
10 11 11 11 11 13 14 18 22 22 22 21 21 19 17 14 12 10 11 12 13 10 8 10 11 8 9 13 12 12 16 14 15 18 22 24 26 28 30 31 32 30 30
5 7 9 11 12 12 12 12 14 15 16 17 16 14 12 11 11 11 14 15 11 11 11 9 8 11 11 10 9 10 13 15 18 21 24 26 28 30 33 35 35 37 39
5 6 10 12 12 13 14 11 13 14 13 13 14 14 14 14 14 14 13 12 11 8 8 8 7 3 4 10 14 16 19 21 20 23 25 27 28 31 32 34 37 38 40
9 10 12 13 13 15 15 15 14 15 16 17 17 17 16 15 16 15 12 9 6 5 2 2 3 5 6 14 18 20 21 21 20 22 25 28 32 33 34 37 38 39 39
13 14 15 16 17 18 18 18 18 18 18 18 17 17 15 17 15 12 7 4 3 3 4 3 3 5 6 15 22 23 23 24 25 24 25 27 32 34 36 40 44 45 47
18 19 19 19 18 18 18 19 19 18 17 17 17 17 15 12 5 4 6 6 6 5 4 4 4 8 8 17 23 25 27 27 28 28 27 30 32 36 38 39 42 41 45
19 19 18 17 17 17 18 19 18 18 18 17 16 14 8 9 9 8 7 5 4 4 6 8 9 10 11 11 22 26 24 23 27 31 34 34 32 34 37 38 40 42 42
20 19 19 18 17 18 18 18 17 17 16 16 13 12 11 8 7 7 5 4 3 4 6 9 9 7 9 11 19 22 25 25 29 29 33 36 37 38 38 36 36 37 35
21 19 20 20 19 18 18 19 18 17 16 14 13 11 9 8 7 5 4 2 3 4 5 7 6 6 7 8 16 24 24 25 27 29 32 35 36 34 33 31 31 31 33
22 22 22 21 20 18 18 17 17 15 14 13 11 9 7 5 4 1 2 2 4 6 7 6 7 7 9 9 18 23 24 25 27 30 32 30 28 30 30 31 31 30 27
24 23 23 22 20 19 18 16 15 15 14 13 11 8 7 5 4 5 6 6 11 10 9 9 10 12 12 14 20 23 24 25 27 29 26 25 26 27 25 23 23 24 25
24 23 21 21 19 18 16 14 13 13 12 11 9 8 5 5 3 3 7 10 11 12 12 12 12 14 17 18 20 21 22 22 23 21 20 23 24 25 25 24 23 20 23

GFSMW_850_spd_072.txt.gz
Wind_Speed
24 24 24 19 26 38 41 32 28 23 23 26 25 23 27 28 27 32 30 26 24 23 21 17 17 19 19 18 16 18 17 17 18 16 12 11 15 11 13 13 14 12 12
21 24 29 30 36 38 29 22 17 20 23 23 22 24 23 22 21 21 26 24 24 24 21 20 21 20 21 18 20 21 21 17 15 12 10 7 11 12 15 13 15 16 17
27 29 32 34 33 30 29 27 28 20 19 19 23 23 21 21 22 26 27 25 24 22 21 20 23 22 22 23 25 22 20 16 19 15 11 5 6 10 12 17 17 15 18
32 32 33 36 37 31 26 28 29 29 20 23 27 26 26 27 26 26 26 23 26 24 22 22 24 25 22 24 27 22 23 21 20 20 15 12 13 9 8 6 10 18 18
30 37 37 37 40 35 33 29 30 27 28 24 24 27 24 23 24 25 26 24 23 25 25 26 27 30 26 27 30 26 24 23 24 21 19 14 11 10 11 14 16 14 14
32 32 35 35 37 36 36 34 31 30 28 32 27 24 25 25 24 24 26 28 26 26 24 24 30 28 27 29 31 25 24 28 26 25 20 14 12 10 12 16 17 17 20
35 37 37 38 38 39 39 37 36 35 32 31 31 32 28 27 26 25 30 27 27 26 25 27 33 30 29 32 31 27 27 31 29 23 18 14 16 10 17 20 24 24 22
29 34 33 40 40 40 41 41 39 39 36 36 33 31 31 30 27 29 29 29 28 29 27 25 28 31 31 32 32 27 31 35 28 23 18 22 22 17 16 18 19 22 23
15 24 33 35 40 41 42 42 39 38 38 38 39 35 33 32 33 30 34 31 27 28 27 22 21 29 30 30 28 30 31 30 22 21 24 21 16 17 16 21 20 21 24
7 14 24 33 36 37 40 40 37 37 35 34 36 37 37 33 30 33 31 29 28 27 23 24 26 26 29 30 28 32 31 25 25 24 21 17 20 13 16 19 21 21 24
5 5 9 15 32 34 35 39 38 35 30 32 35 35 33 30 31 33 33 29 26 20 23 26 25 24 28 31 31 24 20 23 23 16 20 20 13 18 20 22 21 23 23
5 6 7 10 13 19 20 30 32 30 28 29 33 34 33 30 31 31 28 27 26 20 18 18 19 23 22 22 23 25 24 22 17 19 19 16 12 17 20 22 24 27 26
10 10 8 9 11 13 16 15 22 21 24 27 27 28 34 30 30 28 24 23 20 17 14 16 16 16 18 21 22 20 13 15 18 15 12 12 17 20 22 23 25 27 28
11 11 16 14 11 12 14 13 16 20 24 26 30 31 31 23 24 23 22 19 18 15 15 16 14 15 17 16 12 12 13 12 11 11 14 20 21 23 26 29 29 30 31
10 9 9 18 16 15 20 25 27 28 29 26 26 25 25 22 20 19 17 16 15 15 15 15 13 12 11 11 12 12 10 13 14 14 15 17 20 24 26 28 33 37 40
4 1 7 17 20 20 22 22 23 24 22 20 18 16 17 16 16 14 13 15 17 16 13 10 9 9 12 13 12 11 12 12 16 18 20 22 25 28 30 31 32 34 38
6 3 5 17 20 19 21 19 19 19 19 18 16 14 13 11 13 14 16 15 13 12 10 9 8 9 5 5 8 10 13 15 18 20 21 22 23 24 28 31 33 35 35
9 10 13 14 17 18 16 15 12 16 16 15 15 15 15 17 17 17 15 12 12 11 8 5 3 2 8 10 13 15 17 18 19 19 21 23 26 28 31 36 40 42 44
13 14 14 17 15 16 15 14 16 17 18 18 18 18 18 19 18 15 15 14 10 7 7 7 9 10 10 11 16 19 21 23 23 24 25 27 29 30 32 37 41 45 47
14 16 17 19 20 17 17 19 20 19 18 18 17 19 18 18 17 15 11 10 9 9 12 10 10 10 15 16 19 21 24 24 24 23 24 26 28 30 31 32 36 42 44
18 19 20 22 22 23 24 24 24 22 21 20 19 20 18 13 11 13 13 13 13 13 14 13 13 13 15 18 20 22 23 23 23 25 27 28 28 30 31 30 32 34 35
23 23 23 22 22 22 24 23 21 20 21 19 20 17 17 18 18 16 15 12 10 11 10 10 10 9 12 16 18 22 23 23 25 27 28 28 29 31 30 28 27 30 28
23 22 23 23 22 22 21 23 22 21 22 20 20 20 17 15 14 12 11 8 7 8 10 11 9 7 10 13 18 22 23 23 24 25 25 27 29 28 29 29 31 27 25
23 22 23 23 22 20 20 22 23 21 20 20 18 17 15 14 12 9 9 10 12 11 11 9 11 14 16 20 22 22 23 23 24 24 26 26 25 27 31 30 28 25 26
23 22 22 22 20 20 21 20 19 18 18 17 15 15 14 9 12 13 10 10 10 10 11 14 15 16 17 20 19 22 23 23 24 26 25 24 23 31 32 31 27 27 25
22 21 21 22 20 19 18 16 16 17 17 16 14 13 12 11 8 4 7 7 9 11 12 13 15 17 17 17 19 20 21 21 21 22 21 21 26 27 30 31 30 28 27

GFSMW_850_spd_075.txt.gz
Wind_Speed
23 16 18 24 24 20 25 28 31 29 28 31 32 35 37 33 28 23 23 24 25 29 24 23 24 24 25 24 22 19 18 19 17 19 13 13 13 13 13 13 15 13 14
28 24 21 27 28 35 36 35 33 33 35 37 36 33 28 27 26 24 26 27 27 25 28 28 27 26 24 23 23 23 23 22 23 22 23 16 19 20 18 16 14 14 16
35 31 28 31 37 39 34 29 27 28 29 31 29 26 24 23 27 30 31 32 32 28 28 26 27 26 24 25 26 26 25 25 25 25 20 10 11 14 16 16 14 17 18
37 35 32 32 38 35 30 27 26 27 25 26 28 30 31 35 33 34 34 33 29 28 29 28 26 28 28 27 29 29 25 24 27 26 24 25 13 10 8 14 14 17 19
40 41 38 34 38 32 30 29 30 28 26 28 27 30 31 29 28 29 31 32 30 27 29 30 27 29 29 26 28 30 30 27 27 33 31 27 26 17 14 13 11 12 16
42 42 38 38 38 34 31 31 32 32 29 29 30 31 37 33 33 31 35 34 33 30 29 30 29 28 30 30 33 30 33 34 32 31 28 29 26 16 12 12 18 19 18
45 44 44 44 40 38 36 35 35 39 37 35 32 36 38 37 33 36 38 37 35 34 32 28 29 27 28 34 33 32 36 34 33 30 30 25 21 17 17 19 22 26 28
44 45 49 49 47 40 40 42 41 40 43 40 39 38 38 38 36 34 35 35 35 33 25 22 24 23 25 30 34 35 38 33 27 33 31 26 23 21 21 23 24 25 27
46 45 46 50 48 44 42 42 44 44 42 42 42 41 41 41 37 37 37 35 32 29 27 24 20 19 23 32 35 35 30 26 29 31 28 24 26 23 24 20 22 21 28
25 42 43 48 49 48 43 43 44 45 44 43 45 43 41 39 40 36 36 38 33 30 29 20 22 20 23 27 33 29 31 30 29 30 23 20 24 21 23 20 18 23 26
7 10 12 48 47 50 48 46 46 50 47 42 43 44 44 42 37 38 36 35 30 30 27 22 18 21 22 21 22 29 28 28 26 21 21 24 22 22 19 16 21 24 25
16 7 7 2 37 44 47 47 46 45 37 39 41 43 42 43 36 30 36 25 31 23 22 18 19 19 19 20 23 25 25 22 20 19 22 21 19 17 17 17 21 23 25
19 15 10 8 8 18 34 39 45 49 29 27 33 35 38 35 33 32 29 33 28 22 19 18 16 16 19 20 19 18 18 20 18 18 18 15 12 14 15 20 23 24 26
12 17 16 13 10 11 17 32 34 39 28 31 31 30 33 30 28 25 24 19 21 21 19 17 14 16 16 16 17 17 18 15 17 14 11 10 13 17 22 24 26 28 30
16 11 24 22 21 19 17 23 30 31 30 29 28 27 29 29 25 22 20 19 19 17 17 17 18 18 16 15 15 16 16 14 12 9 12 14 16 18 18 19 20 23 26
18 5 5 28 27 25 23 23 23 23 21 22 23 23 23 22 19 17 17 17 18 17 17 18 16 16 15 15 15 14 13 13 14 16 17 20 23 26 29 30 30 28 30
17 10 12 24 27 28 27 25 26 24 22 19 15 16 16 17 16 15 16 16 17 17 16 15 15 13 12 11 12 10 9 10 12 15 19 21 22 24 27 30 32 34 35
14 12 16 24 27 27 26 23 20 18 18 18 18 17 16 16 15 16 17 18 16 16 15 14 11 13 11 10 10 11 13 14 16 17 20 22 24 27 31 34 34 35 37
17 17 18 22 24 22 18 16 14 16 17 19 19 18 17 16 18 18 18 18 18 16 12 12 13 10 11 12 13 15 16 17 19 20 21 22 22 24 26 29 32 35 36
20 21 19 19 19 18 17 16 17 20 21 19 18 17 18 19 20 19 20 19 14 15 15 15 15 14 15 16 17 19 20 20 20 18 18 18 20 21 23 26 30 34 34
20 20 19 19 18 16 16 18 21 20 19 19 19 21 21 21 20 19 17 18 19 18 19 19 18 17 17 16 18 20 21 19 18 18 19 20 20 22 23 23 25 27 32
19 20 22 19 16 16 16 19 20 20 20 19 19 20 21 19 18 19 19 18 19 21 21 19 17 15 15 17 19 20 20 20 20 21 22 22 22 22 22 23 25 27 29
21 21 23 24 22 22 21 22 20 16 16 18 22 20 18 18 19 20 21 21 19 18 17 15 13 14 15 18 18 18 19 21 21 23 22 22 22 21 22 24 26 27 25
22 21 21 22 19 17 17 18 18 17 18 21 21 22 21 18 18 18 17 16 16 14 14 14 15 16 18 18 20 21 22 22 22 22 21 21 20 21 23 26 27 27 27
20 20 21 20 20 19 20 21 21 23 23 23 20 19 18 17 15 14 13 11 11 12 13 14 14 17 19 21 22 21 22 22 22 23 21 20 20 23 26 28 29 29 29
21 25 25 24 25 27 26 22 19 21 23 21 18 15 14 12 10 9 9 9 11 11 11 12 14 17 18 20 20 19 20 20 20 20 19 19 19 23 26 29 31 32 32